Tracking 27401 objects as of 4-Jun-2023
HD Live streaming from Space Station
objects crossing your sky now

SPACEBEE-101

Track SPACEBEE-101 now!
10-day predictions


NORAD ID: 48884
Int'l Code: 2021-059F
Perigee: 478.5 km
Apogee: 485.6 km
Inclination: 97.6 °
Period: 94.1 minutes
Semi major axis: 6853 km
RCS: Unknown
Launch date: June 30, 2021
Source: United States (US)
Launch site: AIR FORCE EASTERN TEST RANGE (AFETR)
Your satellite tracking list
Your tracking list is empty




NASA's NSSDC Master Catalog

Two Line Element Set (TLE):
1 48884U 21059F   23154.89300445  .00024707  00000-0  84358-3 0  9998
2 48884  97.5935 291.2407 0005163 318.7912  41.2938 15.30297823107345
Source of the keplerian elements: AFSPC